sat.trackr.live / text

‹ back to catalog

STARLINK-2592

NORAD 48408 · 2021-038BH

PAYLOAD ACTIVE UNKNOWN

§ Identity

Operator
Country
US
Launch date
2021-05-04
Launch site
AFETR
Launch vehicle
Mass (kg)
RCS (m²)

Purposes: comms

External: N2YO · Heavens-Above · Gunter

§ Orbital elements

Epoch: 2026-09-20T04:45:49.608576Z

Period
94.01 min
Inclination
53.1609°
Eccentricity
0.0001738
Mean motion
15.31729117 rev/d
Perigee alt
469.5 km
Apogee alt
471.8 km
Semi-major
6,848.8 km
B*
1.2920e-6
RAAN
147.9435°
Arg perigee
137.8204°
Mean anomaly
222.2931°
Rev number
29,723

§ Raw data

STARLINK-25921 48408U 21038BH  26263.19849084 -.00000325  00000+0  12920-5 0  99992 48408  53.1609 147.9435 0001738 137.8204 222.2931 15.31729117297238

JSON: /api/v1/satellites/48408 · /tle

For live sub-satellite position, see the globe view (requires WebGL).

§ Visibility from observer

Set your observer location to see the next 7 days of passes ≥ 10°. The values pass through the URL so the page stays shareable.

No JS? Fill the form by hand. The geolocation button needs JavaScript.